Regional Weather Roundup
Issued by NWS Green Bay, WI

Home | Current Version | Previous Version | Graphics & Text | Print | Product List | Glossary Off
Versions: 1 2 3 4 5 6 7 8 9 10 11 12 13 14 15 16 17 18 19 20 21 22 23 24 25 26 27 28 29 30 31 32 33 34 35 36 37 38 39 40 41 42 43 44 45 46 47 48 49 50

000
ASUS43 KGRB 222259
RWRGRB

NORTH-CENTRAL AND NORTHEAST WISCONSIN REGIONAL WEATHER ROUNDUP
NATIONAL WEATHER SERVICE GREEN BAY WI
500 PM CST MON DEC 22 2014

WIZ005-009-010>012-018-019-230000-
NORTH CENTRAL WISCONSIN

CITY           SKY/WX    TMP DP  RH WIND       PRES   REMARKS
IRONWOOD       CLOUDY    36  32  87 E8        29.72R
MANITOWISH WTR NOT AVBL
ARBOR VITAE    NOT AVBL
EAGLE RIVER    NOT AVBL
LAND O LAKES   NOT AVBL
RHINELANDER    CLOUDY    32  31  96 E12       29.75R FOG
PHILLIPS       NOT AVBL
ANTIGO         NOT AVBL
TOMAHAWK       NOT AVBL
MERRILL        NOT AVBL
$$

WIZ013-073-230000-
NORTHEAST WISCONSIN

CITY           SKY/WX    TMP DP  RH WIND       PRES   REMARKS
IRON MOUNTAIN  CLOUDY    33  29  85 E8        29.82R
MARINETTE      CLOUDY    36  28  75 SE7       29.83S
$$

WIZ017-030-035>037-045-230000-
CENTRAL WISCONSIN

CITY           SKY/WX    TMP DP  RH WIND       PRES   REMARKS
MEDFORD        NOT AVBL
WAUSAU         CLOUDY    34  30  85 E14       29.72R
MOSINEE        NOT AVBL
MARSHFIELD     CLOUDY    35  31  85 E10       29.69S FOG
WISC RAPIDS    LGT SNOW  35  31  85 E12       29.71S FOG
STEVENS POINT  NOT AVBL
WAUPACA        NOT AVBL
SHAWANO        NOT AVBL
CLINTONVILLE   NOT AVBL
$$

WIZ038-039-048-051-230000-
FOX VALLEY

CITY           SKY/WX    TMP DP  RH WIND       PRES   REMARKS
NWS GREEN BAY  LGT RAIN  35  32  88 MISG      29.79S FOG
APPLETON       LGT SNOW  34  34 100 E6        29.76F
OSHKOSH        LGT SNOW  33  31  92 E9        29.74S VSB 1
FOND DU LAC    LGT SNOW  35  31  85 E12       29.73F FOG
$$

WIZ022-050-052-230000-
EAST CENTRAL WISCONSIN

CITY           SKY/WX    TMP DP  RH WIND       PRES   REMARKS
STURGEON BAY   CLOUDY    36  28  75 SE9G17    29.84S
MANITOWOC      NOT AVBL
SHEBOYGAN      LGT RAIN  36  33  89 E10       29.77F FOG
$$

LMZ563-521-522-541>543-230000-
LAKESHORE

STATION/POSITION TIME  TEMP    WIND        PRES    VSBY  WAVE
                       AIR SEA DIR/SP/G                  HT/PER
                 (UTC) (F)     (DEG/KT/KT) (MB)    (MI)  (FT/S)
SHEBOYGAN LKSHOR 2200   37 38  110/ 21/ 23 1009.1F
KEWAUNEE LKSHORE 2200   36     140/ 15/ 19 1008.8F
ALGOMA MARINA    2200          150/ 20/ 24   N/A
TWO RIVERS CG    2200   36 37              1009.7F     6   3
NORTHPORT PIER   2200   37     120/ 12/ 15 1011.2S
SISTER BAY LKSHO 2200          120/  6/ 10   N/A
STURGEON BAY CG  2200   37     130/ 13     1011.1      6   3
CHAMBERS ISLAND  2200   37      90/  5/  9 1010.8F
MENOMINEE LKSHOR 2200   35      90/  8/  9 1010.9F
$$



USA.gov is the U.S. government's official web portal to all federal, state and local government web resources and services.